Wetterdaten: Mittwoch, 03.12.2014
Datum Zeit Temp. A. Feuchte A. Luftdruck Regen Wind Richtung Richtung Sonnenschein ET UV Solar Taupunkt Windchill Windben Empfang
03.12.2014 00:00 0,9 C 78 % 1013,0 hPa 0,0 l/m 12,2 km/h (2 Bft) O 101 0 min 0,000 mm 0,0 UV-I 0 W/m -2,5 C -4,1 C 15,8 km/h (3 Bft) 0,00 %
03.12.2014 00:15 0,9 C 78 % 1013,0 hPa 0,0 l/m 0,4 km/h (0 Bft) O 100 0 min 0,000 mm 0,0 UV-I 0 W/m -2,5 C 0,9 C 4,0 km/h (1 Bft) 0,00 %
03.12.2014 00:30 1,0 C 78 % 1013,0 hPa 0,0 l/m 7,2 km/h (2 Bft) O 96 0 min 0,000 mm 0,0 UV-I 0 W/m -2,4 C 0,2 C 11,9 km/h (2 Bft) 0,00 %
03.12.2014 00:45 1,0 C 78 % 1013,0 hPa 0,0 l/m 2,2 km/h (1 Bft) S-SO 150 0 min 0,000 mm 0,0 UV-I 0 W/m -2,4 C 1,0 C 4,0 km/h (1 Bft) 0,00 %
03.12.2014 01:00 1,0 C 78 % 1013,1 hPa 0,0 l/m 9,0 km/h (2 Bft) O-SO 106 0 min 0,000 mm 0,0 UV-I 0 W/m -2,4 C -1,5 C 11,9 km/h (2 Bft) 0,00 %
03.12.2014 01:15 1,0 C 78 % 1013,0 hPa 0,0 l/m 4,3 km/h (1 Bft) O-SO 107 0 min 0,000 mm 0,0 UV-I 0 W/m -2,4 C 1,0 C 7,9 km/h (2 Bft) 0,00 %
03.12.2014 01:30 1,1 C 78 % 1013,2 hPa 0,0 l/m 9,7 km/h (2 Bft) O-SO 111 0 min 0,000 mm 0,0 UV-I 0 W/m -2,3 C -2,0 C 11,9 km/h (2 Bft) 0,00 %
03.12.2014 01:45 1,1 C 78 % 1013,3 hPa 0,0 l/m 1,8 km/h (1 Bft) O-SO 120 0 min 0,000 mm 0,0 UV-I 0 W/m -2,3 C 1,1 C 4,0 km/h (1 Bft) 0,00 %
03.12.2014 02:00 1,1 C 78 % 1013,1 hPa 0,0 l/m 4,7 km/h (1 Bft) O-SO 117 0 min 0,000 mm 0,0 UV-I 0 W/m -2,3 C 1,1 C 11,9 km/h (2 Bft) 0,00 %
03.12.2014 02:15 1,1 C 78 % 1013,3 hPa 0,0 l/m 9,0 km/h (2 Bft) SO 146 0 min 0,000 mm 0,0 UV-I 0 W/m -2,3 C -1,4 C 11,9 km/h (2 Bft) 0,00 %
03.12.2014 02:30 1,2 C 78 % 1013,3 hPa 0,0 l/m 0,0 km/h (0 Bft) SO 133 0 min 0,000 mm 0,0 UV-I 0 W/m -2,2 C 1,2 C 0,0 km/h (0 Bft) 0,00 %
03.12.2014 02:45 1,2 C 79 % 1013,3 hPa 0,0 l/m 0,0 km/h (0 Bft) S 171 0 min 0,000 mm 0,0 UV-I 0 W/m -2,0 C 1,2 C 0,0 km/h (0 Bft) 0,00 %
03.12.2014 03:00 1,2 C 79 % 1013,1 hPa 0,0 l/m 6,8 km/h (2 Bft) O 81 0 min 0,000 mm 0,0 UV-I 0 W/m -2,0 C 0,8 C 7,9 km/h (2 Bft) 0,00 %
03.12.2014 03:15 1,2 C 79 % 1013,3 hPa 0,0 l/m 5,8 km/h (2 Bft) O 95 0 min 0,000 mm 0,0 UV-I 0 W/m -2,0 C 1,2 C 7,9 km/h (2 Bft) 0,00 %
03.12.2014 03:30 1,2 C 79 % 1013,3 hPa 0,0 l/m 8,3 km/h (2 Bft) SO 128 0 min 0,000 mm 0,0 UV-I 0 W/m -2,0 C -0,7 C 11,9 km/h (2 Bft) 0,00 %
03.12.2014 03:45 1,3 C 78 % 1013,5 hPa 0,0 l/m 6,8 km/h (2 Bft) O 99 0 min 0,000 mm 0,0 UV-I 0 W/m -2,1 C 0,9 C 7,9 km/h (2 Bft) 0,00 %
03.12.2014 04:00 1,3 C 78 % 1013,6 hPa 0,0 l/m 4,0 km/h (1 Bft) S 189 0 min 0,000 mm 0,0 UV-I 0 W/m -2,1 C 1,3 C 7,9 km/h (2 Bft) 0,00 %
03.12.2014 04:15 1,4 C 78 % 1013,6 hPa 0,0 l/m 4,0 km/h (1 Bft) O-SO 123 0 min 0,000 mm 0,0 UV-I 0 W/m -2,0 C 1,4 C 4,0 km/h (1 Bft) 0,00 %
03.12.2014 04:30 1,4 C 78 % 1013,5 hPa 0,0 l/m 5,8 km/h (2 Bft) O 81 0 min 0,000 mm 0,0 UV-I 0 W/m -2,0 C 1,4 C 7,9 km/h (2 Bft) 0,00 %
03.12.2014 04:45 1,4 C 78 % 1013,7 hPa 0,0 l/m 1,4 km/h (1 Bft) O-SO 112 0 min 0,000 mm 0,0 UV-I 0 W/m -2,0 C 1,4 C 4,0 km/h (1 Bft) 0,00 %
03.12.2014 05:00 1,5 C 77 % 1013,8 hPa 0,0 l/m 1,4 km/h (1 Bft) O 93 0 min 0,000 mm 0,0 UV-I 0 W/m -2,1 C 1,5 C 4,0 km/h (1 Bft) 0,00 %
03.12.2014 05:15 1,4 C 77 % 1013,9 hPa 0,0 l/m 3,2 km/h (1 Bft) S 172 0 min 0,000 mm 0,0 UV-I 0 W/m -2,2 C 1,4 C 4,0 km/h (1 Bft) 0,00 %
03.12.2014 05:30 1,5 C 77 % 1014,0 hPa 0,0 l/m 0,7 km/h (0 Bft) O-SO 121 0 min 0,000 mm 0,0 UV-I 0 W/m -2,1 C 1,5 C 4,0 km/h (1 Bft) 0,00 %
03.12.2014 05:45 1,5 C 77 % 1014,0 hPa 0,0 l/m 2,9 km/h (1 Bft) SO 139 0 min 0,000 mm 0,0 UV-I 0 W/m -2,1 C 1,5 C 7,9 km/h (2 Bft) 0,00 %
03.12.2014 06:00 1,5 C 77 % 1014,1 hPa 0,0 l/m 6,8 km/h (2 Bft) O-NO 77 0 min 0,000 mm 0,0 UV-I 0 W/m -2,1 C 1,1 C 11,9 km/h (2 Bft) 0,00 %
03.12.2014 06:15 1,5 C 77 % 1014,2 hPa 0,0 l/m 6,5 km/h (2 Bft) O-SO 119 0 min 0,000 mm 0,0 UV-I 0 W/m -2,1 C 1,4 C 7,9 km/h (2 Bft) 0,00 %
03.12.2014 06:30 1,5 C 77 % 1014,3 hPa 0,0 l/m 1,8 km/h (1 Bft) O-SO 118 0 min 0,000 mm 0,0 UV-I 0 W/m -2,1 C 1,5 C 4,0 km/h (1 Bft) 0,00 %
03.12.2014 06:45 1,5 C 77 % 1014,2 hPa 0,0 l/m 0,4 km/h (0 Bft) O-NO 71 0 min 0,000 mm 0,0 UV-I 0 W/m -2,1 C 1,5 C 4,0 km/h (1 Bft) 0,00 %
03.12.2014 07:00 1,6 C 77 % 1014,6 hPa 0,0 l/m 5,4 km/h (1 Bft) O 97 0 min 0,000 mm 0,0 UV-I 0 W/m -2,0 C 1,6 C 7,9 km/h (2 Bft) 0,00 %
03.12.2014 07:15 1,6 C 77 % 1014,7 hPa 0,0 l/m 0,0 km/h (0 Bft) O-NO 73 0 min 0,000 mm 0,0 UV-I 0 W/m -2,0 C 1,6 C 0,0 km/h (0 Bft) 0,00 %
03.12.2014 07:30 1,6 C 77 % 1014,8 hPa 0,0 l/m 1,4 km/h (1 Bft) O-SO 116 0 min 0,000 mm 0,0 UV-I 0 W/m -2,0 C 1,6 C 4,0 km/h (1 Bft) 0,00 %
03.12.2014 07:45 1,7 C 76 % 1015,1 hPa 0,0 l/m 1,4 km/h (1 Bft) O-NO 74 0 min 0,000 mm 0,0 UV-I 0 W/m -2,1 C 1,7 C 4,0 km/h (1 Bft) 0,00 %
03.12.2014 08:00 1,7 C 76 % 1015,2 hPa 0,0 l/m 6,8 km/h (2 Bft) O-SO 118 0 min 0,000 mm 0,0 UV-I 0 W/m -2,1 C 1,3 C 7,9 km/h (2 Bft) 0,00 %
03.12.2014 08:15 1,8 C 76 % 1015,2 hPa 0,0 l/m 4,0 km/h (1 Bft) S-SW 200 0 min 0,000 mm 0,0 UV-I 0 W/m -2,0 C 1,8 C 7,9 km/h (2 Bft) 0,00 %
03.12.2014 08:30 1,8 C 76 % 1015,3 hPa 0,0 l/m 6,8 km/h (2 Bft) O 99 0 min 0,000 mm 0,0 UV-I 6 W/m -2,0 C 1,4 C 11,9 km/h (2 Bft) 0,00 %
03.12.2014 08:45 1,9 C 76 % 1015,4 hPa 0,0 l/m 4,0 km/h (1 Bft) O 79 0 min 0,000 mm 0,0 UV-I 15 W/m -1,9 C 1,9 C 7,9 km/h (2 Bft) 0,00 %
03.12.2014 09:00 1,9 C 76 % 1015,3 hPa 0,0 l/m 1,8 km/h (1 Bft) O-SO 113 0 min 0,000 mm 0,0 UV-I 31 W/m -1,9 C 1,9 C 4,0 km/h (1 Bft) 0,00 %
03.12.2014 09:15 2,0 C 76 % 1015,5 hPa 0,0 l/m 6,8 km/h (2 Bft) O-SO 110 0 min 0,000 mm 0,0 UV-I 30 W/m -1,8 C 1,6 C 11,9 km/h (2 Bft) 0,00 %
03.12.2014 09:30 2,0 C 76 % 1015,5 hPa 0,0 l/m 3,2 km/h (1 Bft) O 99 0 min 0,000 mm 0,0 UV-I 48 W/m -1,8 C 2,0 C 4,0 km/h (1 Bft) 0,00 %
03.12.2014 09:45 2,1 C 76 % 1015,7 hPa 0,0 l/m 0,0 km/h (0 Bft) NO 43 0 min 0,000 mm 0,0 UV-I 42 W/m -1,7 C 2,1 C 0,0 km/h (0 Bft) 0,00 %
03.12.2014 10:00 2,1 C 76 % 1015,9 hPa 0,0 l/m 7,2 km/h (2 Bft) O-SO 113 0 min 0,000 mm 0,0 UV-I 54 W/m -1,7 C 1,3 C 11,9 km/h (2 Bft) 0,00 %
03.12.2014 10:15 2,2 C 75 % 1015,9 hPa 0,0 l/m 0,0 km/h (0 Bft) SW 217 0 min 0,000 mm 0,0 UV-I 74 W/m -1,8 C 2,2 C 0,0 km/h (0 Bft) 0,00 %
03.12.2014 10:30 2,3 C 75 % 1015,7 hPa 0,0 l/m 0,4 km/h (0 Bft) S 172 0 min 0,000 mm 0,0 UV-I 86 W/m -1,7 C 2,3 C 4,0 km/h (1 Bft) 0,00 %
03.12.2014 10:45 2,4 C 75 % 1015,7 hPa 0,0 l/m 0,7 km/h (0 Bft) O 87 0 min 0,000 mm 1,0 UV-I 102 W/m -1,6 C 2,4 C 4,0 km/h (1 Bft) 0,00 %
03.12.2014 11:00 2,4 C 75 % 1015,6 hPa 0,0 l/m 0,4 km/h (0 Bft) O-NO 75 0 min 0,000 mm 0,0 UV-I 81 W/m -1,6 C 2,4 C 4,0 km/h (1 Bft) 0,00 %
03.12.2014 11:15 2,5 C 79 % 1015,5 hPa 0,0 l/m 0,0 km/h (0 Bft) S 184 0 min 0,000 mm 0,0 UV-I 71 W/m -0,8 C 2,5 C 0,0 km/h (0 Bft) 0,00 %
03.12.2014 11:30 2,5 C 79 % 1015,5 hPa 0,0 l/m 0,0 km/h (0 Bft) S 177 0 min 0,000 mm 0,0 UV-I 81 W/m -0,8 C 2,5 C 0,0 km/h (0 Bft) 0,00 %
03.12.2014 11:45 2,6 C 79 % 1015,4 hPa 0,0 l/m 0,0 km/h (0 Bft) SO 129 0 min 0,000 mm 0,0 UV-I 76 W/m -0,7 C 2,6 C 0,0 km/h (0 Bft) 0,00 %
03.12.2014 12:00 2,6 C 79 % 1015,6 hPa 0,0 l/m 0,0 km/h (0 Bft) S 176 0 min 0,000 mm 0,0 UV-I 70 W/m -0,7 C 2,6 C 0,0 km/h (0 Bft) 0,00 %
03.12.2014 12:15 2,5 C 79 % 1015,4 hPa 0,0 l/m 0,0 km/h (0 Bft) O 84 0 min 0,000 mm 0,0 UV-I 51 W/m -0,8 C 2,5 C 0,0 km/h (0 Bft) 0,00 %
03.12.2014 12:30 2,5 C 80 % 1015,5 hPa 0,0 l/m 0,0 km/h (0 Bft) NO 44 0 min 0,000 mm 0,0 UV-I 46 W/m -0,6 C 2,5 C 0,0 km/h (0 Bft) 0,00 %
03.12.2014 12:45 2,6 C 80 % 1015,4 hPa 0,0 l/m 0,0 km/h (0 Bft) SO 133 0 min 0,000 mm 0,0 UV-I 82 W/m -0,5 C 2,6 C 0,0 km/h (0 Bft) 0,00 %
03.12.2014 13:00 2,9 C 79 % 1015,3 hPa 0,0 l/m 0,0 km/h (0 Bft) W-SW 256 0 min 0,000 mm 1,0 UV-I 101 W/m -0,4 C 2,9 C 0,0 km/h (0 Bft) 0,00 %
03.12.2014 13:15 3,1 C 78 % 1015,6 hPa 0,0 l/m 0,0 km/h (0 Bft) N 355 0 min 0,000 mm 0,0 UV-I 53 W/m -0,4 C 3,1 C 0,0 km/h (0 Bft) 0,00 %
03.12.2014 13:30 2,9 C 79 % 1015,3 hPa 0,0 l/m 0,0 km/h (0 Bft) W-SW 253 0 min 0,000 mm 0,0 UV-I 48 W/m -0,4 C 2,9 C 0,0 km/h (0 Bft) 0,00 %
03.12.2014 13:45 2,9 C 79 % 1015,2 hPa 0,0 l/m 0,0 km/h (0 Bft) N-NW 341 0 min 0,000 mm 0,0 UV-I 41 W/m -0,4 C 2,9 C 0,0 km/h (0 Bft) 0,00 %
03.12.2014 14:00 2,8 C 79 % 1015,5 hPa 0,0 l/m 0,0 km/h (0 Bft) SW 222 0 min 0,000 mm 0,0 UV-I 12 W/m -0,5 C 2,8 C 0,0 km/h (0 Bft) 0,00 %
03.12.2014 14:15 2,8 C 79 % 1015,4 hPa 0,0 l/m 0,0 km/h (0 Bft) W-SW 251 0 min 0,000 mm 0,0 UV-I 0 W/m -0,5 C 2,8 C 0,0 km/h (0 Bft) 0,00 %
03.12.2014 14:30 2,8 C 79 % 1015,7 hPa 0,0 l/m 0,0 km/h (0 Bft) SW 224 0 min 0,000 mm 0,0 UV-I 0 W/m -0,5 C 2,8 C 0,0 km/h (0 Bft) 0,00 %
03.12.2014 14:45 2,8 C 80 % 1015,6 hPa 0,0 l/m 1,4 km/h (1 Bft) O-SO 122 0 min 0,000 mm 0,0 UV-I 0 W/m -0,3 C 2,8 C 4,0 km/h (1 Bft) 0,00 %
03.12.2014 15:00 3,0 C 80 % 1015,8 hPa 0,0 l/m 0,7 km/h (0 Bft) SO 142 0 min 0,000 mm 0,0 UV-I 0 W/m -0,1 C 3,0 C 4,0 km/h (1 Bft) 0,00 %
03.12.2014 15:15 3,0 C 80 % 1015,8 hPa 0,0 l/m 2,9 km/h (1 Bft) O-SO 119 0 min 0,000 mm 0,0 UV-I 0 W/m -0,1 C 3,0 C 7,9 km/h (2 Bft) 0,00 %
03.12.2014 15:30 3,0 C 80 % 1015,8 hPa 0,0 l/m 0,4 km/h (0 Bft) O-SO 115 0 min 0,000 mm 0,0 UV-I 0 W/m -0,1 C 3,0 C 4,0 km/h (1 Bft) 0,00 %
03.12.2014 15:45 3,0 C 80 % 1016,0 hPa 0,0 l/m 0,0 km/h (0 Bft) SO 133 0 min 0,000 mm 0,0 UV-I 0 W/m -0,1 C 3,0 C 0,0 km/h (0 Bft) 0,00 %
03.12.2014 16:00 3,0 C 80 % 1016,2 hPa 0,0 l/m 0,4 km/h (0 Bft) S 176 0 min 0,000 mm 0,0 UV-I 0 W/m -0,1 C 3,0 C 4,0 km/h (1 Bft) 0,00 %
03.12.2014 16:15 3,0 C 80 % 1016,2 hPa 0,0 l/m 0,7 km/h (0 Bft) O-NO 70 0 min 0,000 mm 0,0 UV-I 0 W/m -0,1 C 3,0 C 4,0 km/h (1 Bft) 0,00 %
03.12.2014 16:30 3,0 C 80 % 1016,3 hPa 0,0 l/m 0,0 km/h (0 Bft) O-NO 76 0 min 0,000 mm 0,0 UV-I 0 W/m -0,1 C 3,0 C 0,0 km/h (0 Bft) 0,00 %
03.12.2014 16:45 3,0 C 80 % 1016,5 hPa 0,0 l/m 6,5 km/h (2 Bft) O 97 0 min 0,000 mm 0,0 UV-I 0 W/m -0,1 C 2,9 C 7,9 km/h (2 Bft) 0,00 %
03.12.2014 17:00 3,0 C 79 % 1016,3 hPa 0,0 l/m 6,8 km/h (2 Bft) O 93 0 min 0,000 mm 0,0 UV-I 0 W/m -0,3 C 2,6 C 7,9 km/h (2 Bft) 0,00 %
03.12.2014 17:15 3,0 C 79 % 1016,4 hPa 0,0 l/m 4,0 km/h (1 Bft) SO 135 0 min 0,000 mm 0,0 UV-I 0 W/m -0,3 C 3,0 C 7,9 km/h (2 Bft) 0,00 %
03.12.2014 17:30 3,0 C 79 % 1016,4 hPa 0,0 l/m 9,7 km/h (2 Bft) SO 136 0 min 0,000 mm 0,0 UV-I 0 W/m -0,3 C 0,1 C 11,9 km/h (2 Bft) 0,00 %
03.12.2014 17:45 3,0 C 79 % 1016,3 hPa 0,0 l/m 0,0 km/h (0 Bft) O 92 0 min 0,000 mm 0,0 UV-I 0 W/m -0,3 C 3,0 C 0,0 km/h (0 Bft) 0,00 %
03.12.2014 18:00 3,0 C 78 % 1016,4 hPa 0,0 l/m 0,4 km/h (0 Bft) O 90 0 min 0,000 mm 0,0 UV-I 0 W/m -0,5 C 3,0 C 4,0 km/h (1 Bft) 0,00 %
03.12.2014 18:15 3,0 C 78 % 1016,4 hPa 0,0 l/m 1,4 km/h (1 Bft) O-SO 117 0 min 0,000 mm 0,0 UV-I 0 W/m -0,5 C 3,0 C 4,0 km/h (1 Bft) 0,00 %
03.12.2014 18:30 3,0 C 77 % 1016,5 hPa 0,0 l/m 2,9 km/h (1 Bft) O-SO 121 0 min 0,000 mm 0,0 UV-I 0 W/m -0,6 C 3,0 C 7,9 km/h (2 Bft) 0,00 %
03.12.2014 18:45 2,9 C 78 % 1016,5 hPa 0,0 l/m 2,9 km/h (1 Bft) NO 44 0 min 0,000 mm 0,0 UV-I 0 W/m -0,5 C 2,9 C 7,9 km/h (2 Bft) 0,00 %
03.12.2014 19:00 2,9 C 77 % 1016,4 hPa 0,0 l/m 9,4 km/h (2 Bft) O-SO 121 0 min 0,000 mm 0,0 UV-I 0 W/m -0,7 C 0,2 C 11,9 km/h (2 Bft) 0,00 %
03.12.2014 19:15 2,9 C 78 % 1016,2 hPa 0,0 l/m 0,7 km/h (0 Bft) O 89 0 min 0,000 mm 0,0 UV-I 0 W/m -0,5 C 2,9 C 4,0 km/h (1 Bft) 0,00 %
03.12.2014 19:30 2,8 C 78 % 1016,5 hPa 0,0 l/m 1,4 km/h (1 Bft) SO 134 0 min 0,000 mm 0,0 UV-I 0 W/m -0,6 C 2,8 C 4,0 km/h (1 Bft) 0,00 %
03.12.2014 19:45 2,8 C 78 % 1016,3 hPa 0,0 l/m 3,2 km/h (1 Bft) O 84 0 min 0,000 mm 0,0 UV-I 0 W/m -0,6 C 2,8 C 7,9 km/h (2 Bft) 0,00 %
03.12.2014 20:00 2,8 C 78 % 1016,4 hPa 0,0 l/m 5,8 km/h (2 Bft) O 83 0 min 0,000 mm 0,0 UV-I 0 W/m -0,6 C 2,8 C 7,9 km/h (2 Bft) 0,00 %
03.12.2014 20:15 2,9 C 78 % 1016,4 hPa 0,0 l/m 0,4 km/h (0 Bft) SO 138 0 min 0,000 mm 0,0 UV-I 0 W/m -0,5 C 2,9 C 4,0 km/h (1 Bft) 0,00 %
03.12.2014 20:30 2,8 C 79 % 1016,4 hPa 0,0 l/m 0,7 km/h (0 Bft) O-NO 67 0 min 0,000 mm 0,0 UV-I 0 W/m -0,5 C 2,8 C 4,0 km/h (1 Bft) 0,00 %
03.12.2014 20:45 2,8 C 79 % 1016,1 hPa 0,0 l/m 5,4 km/h (1 Bft) SO 127 0 min 0,000 mm 0,0 UV-I 0 W/m -0,5 C 2,8 C 7,9 km/h (2 Bft) 0,00 %
03.12.2014 21:00 2,8 C 79 % 1016,2 hPa 0,0 l/m 9,7 km/h (2 Bft) O-SO 122 0 min 0,000 mm 0,0 UV-I 0 W/m -0,5 C -0,1 C 15,8 km/h (3 Bft) 0,00 %
03.12.2014 21:15 2,8 C 79 % 1016,2 hPa 0,0 l/m 4,3 km/h (1 Bft) S-SW 192 0 min 0,000 mm 0,0 UV-I 0 W/m -0,5 C 2,8 C 7,9 km/h (2 Bft) 0,00 %
03.12.2014 21:30 2,9 C 79 % 1016,1 hPa 0,0 l/m 9,4 km/h (2 Bft) O-SO 106 0 min 0,000 mm 0,0 UV-I 0 W/m -0,4 C 0,2 C 11,9 km/h (2 Bft) 0,00 %
03.12.2014 21:45 2,9 C 79 % 1016,0 hPa 0,0 l/m 0,0 km/h (0 Bft) W-SW 255 0 min 0,000 mm 0,0 UV-I 0 W/m -0,4 C 2,9 C 0,0 km/h (0 Bft) 0,00 %
03.12.2014 22:00 2,9 C 79 % 1015,9 hPa 0,0 l/m 6,8 km/h (2 Bft) O 83 0 min 0,000 mm 0,0 UV-I 0 W/m -0,4 C 2,5 C 11,9 km/h (2 Bft) 0,00 %
03.12.2014 22:15 2,9 C 79 % 1016,0 hPa 0,0 l/m 9,7 km/h (2 Bft) O-SO 107 0 min 0,000 mm 0,0 UV-I 0 W/m -0,4 C -0,0 C 15,8 km/h (3 Bft) 0,00 %
03.12.2014 22:30 2,9 C 79 % 1015,9 hPa 0,0 l/m 1,4 km/h (1 Bft) S 185 0 min 0,000 mm 0,0 UV-I 0 W/m -0,4 C 2,9 C 4,0 km/h (1 Bft) 0,00 %
03.12.2014 22:45 2,9 C 79 % 1015,8 hPa 0,0 l/m 11,5 km/h (2 Bft) O-SO 102 0 min 0,000 mm 0,0 UV-I 0 W/m -0,4 C -1,3 C 11,9 km/h (2 Bft) 0,00 %
03.12.2014 23:00 2,9 C 79 % 1015,8 hPa 0,0 l/m 11,5 km/h (2 Bft) O 87 0 min 0,000 mm 0,0 UV-I 0 W/m -0,4 C -1,3 C 15,8 km/h (3 Bft) 0,00 %
03.12.2014 23:15 2,8 C 79 % 1015,7 hPa 0,0 l/m 14,0 km/h (3 Bft) O 100 0 min 0,000 mm 0,0 UV-I 0 W/m -0,5 C -3,0 C 24,1 km/h (4 Bft) 0,00 %
03.12.2014 23:30 2,7 C 81 % 1015,6 hPa 0,0 l/m 11,5 km/h (2 Bft) O 95 0 min 0,000 mm 0,0 UV-I 0 W/m -0,2 C -1,6 C 11,9 km/h (2 Bft) 0,00 %
_ Min-Zeit 00:00 10:15 00:00 - 02:30 - - - - - - 00:00 00:00 02:30 00:00
Minimum _ 0,9 C 75 % 1013,0 hPa - 0,0 km/h (0 Bft) - - - - - - -2,5 C -4,1 C 0,0 km/h (0 Bft) 0,00 %
_ Max-Zeit 13:15 23:30 16:45 00:00 23:15 - - 00:00 00:00 10:45 10:45 15:00 13:15 23:15 00:00
Maximum _ 3,1 C 81 % 1016,5 hPa 0,0 l/m 14,0 km/h
O (3 Bft)
- - 0 min 0,000 mm 1,0 UV-I 102 W/m -0,1 C 3,1 C 24,1 km/h
O (4 Bft)
0,00 %
Durchschnitt _ 2,2 C 78 % 1015,1 hPa #0,0 l/m 3,4 km/h (1 Bft) O-SO - #0 min. #0,000 mm 1,0 UV-I 57 W/m -1,2 C 1,7 C 5,9 km/h (2 Bft) 0,00 %